Flag for Turkey Weather past 2 weeks in Mersin, Turkey

Now
61 °F

Partly cloudy.


Feels Like: 61 °F
Forecast: 47 / 63 °F
Wind: 3 mph from Southeast

Location: Adana / Sakirpasa

Current Time: Mar 31, 2015 at 9:39:05 PM

Latest Report: Mar 31, 2015 at 8:50 PM


Visibility: N/A

Pressure: 29.86 "Hg

Humidity: 77%

Dew point: 54 °F

Location of MersinLocation

Historic Weather in Mersin — Graph

°F

Mersin temperature yesterday

Maximum temperature yesterday: 68 °F (at 1:50 PM)
Minimum temperature yesterday: 50 °F (at 6:50 AM)
Average temperature yesterday: 60 °F

Past Weeks' High & Low Weather Summary

 TemperatureHumidityPressure
High77 °F (Mar 27, 1:20 PM)94% (Mar 17, 6:50 AM)30.15 "Hg (Mar 17, 6:50 AM)
Low39 °F (Mar 23, 4:20 AM)15% (Mar 25, 3:50 PM)29.65 "Hg (Mar 29, 4:50 PM)
Average58 °F61%29.95 "Hg
* Reported Mar 16 7:20 PM — Mar 31 8:20 PM, Mersin, Weather by CustomWeather, © 2015

Note: Actual official high and low records may vary slightly from our data, if they occured in-between our weather recording intervals... More about our weather records

Advertising

Mersin weather history for previous 24 hours

 ConditionsComfort  
Time TempWeatherWind HumidityBarometerVisibility
8:20 PM
Tue, Mar 31
61 °FPartly cloudy.2 mph72%29.83 "HgN/A
7:50 PM61 °FBroken clouds.2 mph72%29.83 "HgN/A
7:20 PM61 °FBroken clouds.5 mph72%29.83 "HgN/A
6:50 PM63 °FBroken clouds.7 mph64%29.83 "HgN/A
6:20 PM63 °FBroken clouds.9 mph59%29.83 "HgN/A
5:50 PM63 °FBroken clouds.8 mph68%29.83 "HgN/A
5:20 PM64 °FBroken clouds.15 mph64%29.83 "HgN/A
4:50 PM64 °FBroken clouds.15 mph56%29.86 "HgN/A
4:20 PM66 °FBroken clouds.16 mph56%29.86 "HgN/A
3:50 PM68 °FBroken clouds.16 mph56%29.86 "HgN/A
3:20 PM66 °FBroken clouds.18 mph64%29.86 "HgN/A
2:50 PM66 °FBroken clouds.21 mph60%29.86 "HgN/A
2:20 PM66 °FBroken clouds.20 mph64%29.86 "HgN/A
1:50 PM66 °FBroken clouds.22 mph60%29.86 "HgN/A
1:20 PM66 °FBroken clouds.17 mph64%29.86 "HgN/A
12:50 PM66 °FBroken clouds.17 mph64%29.86 "HgN/A
12:20 PM66 °FBroken clouds.10 mph64%29.86 "HgN/A
11:50 AM68 °FBroken clouds.9 mph56%29.89 "HgN/A
11:20 AM66 °FBroken clouds.12 mph64%29.89 "HgN/A
10:50 AM64 °FBroken clouds.8 mph68%29.89 "HgN/A
10:20 AM64 °FBroken clouds.10 mph68%29.89 "HgN/A
9:50 AM64 °FBroken clouds.6 mph68%29.89 "HgN/A
9:20 AM63 °FBroken clouds.8 mph77%29.86 "HgN/A
8:50 AM63 °FScattered clouds.7 mph77%29.89 "HgN/A
8:20 AM61 °FScattered clouds.10 mph77%29.89 "HgN/A
7:50 AM61 °FScattered clouds.9 mph77%29.86 "HgN/A
7:20 AM59 °FPassing clouds.8 mph82%29.86 "HgN/A
6:50 AM57 °FPassing clouds.7 mph82%29.86 "HgN/A
6:20 AM57 °FPassing clouds.8 mph82%29.86 "HgN/A
5:50 AM59 °FPassing clouds.7 mph82%29.86 "HgN/A
5:20 AM59 °FPassing clouds.8 mph82%29.86 "HgN/A
4:50 AM59 °FPassing clouds.6 mph82%29.86 "HgN/A
4:20 AM59 °FPassing clouds.7 mph82%29.83 "HgN/A
3:50 AM59 °FPassing clouds.7 mph82%29.83 "HgN/A
3:20 AM59 °FPassing clouds.6 mph82%29.83 "HgN/A
2:50 AM59 °FPassing clouds.7 mph82%29.83 "HgN/A
2:20 AM59 °FPassing clouds.6 mph82%29.83 "HgN/A
1:50 AM59 °FPassing clouds.6 mph82%29.83 "HgN/A
1:20 AM59 °FPassing clouds.7 mph82%29.83 "HgN/A
12:50 AM59 °FPassing clouds.6 mph82%29.83 "HgN/A
12:20 AM59 °FPassing clouds.5 mph82%29.83 "HgN/A
11:50 PM
Mon, Mar 30
59 °FPassing clouds.6 mph82%29.83 "HgN/A
11:20 PM61 °FPassing clouds.5 mph77%29.86 "HgN/A
10:50 PM59 °FPassing clouds.6 mph82%29.83 "HgN/A
10:20 PM59 °FPassing clouds.3 mph82%29.86 "HgN/A
9:50 PM59 °FPassing clouds.5 mph82%29.83 "HgN/A
9:20 PM59 °FPassing clouds.5 mph82%29.83 "HgN/A
Weather by CustomWeather, © 2015

See weather overviewHow to use our weather pages